GFSFLT2_sfc_dewp_000.txt.gz
Dewpoint
53 55 56 54 53 53 52 52 52 53 54 55 55 55 56 56 56 55 54 52 50 50 48 46 44 43 43
51 52 53 55 54 53 52 52 52 52 53 54 55 55 55 55 54 53 51 50 48 47 45 43 42 43 42
50 51 52 53 49 49 51 50 51 51 52 53 55 55 55 54 52 51 50 48 47 45 42 41 41 41 41
49 49 50 51 49 51 48 44 46 47 48 50 52 53 54 53 51 49 48 46 44 43 41 39 39 39 38
46 48 49 48 46 47 47 48 44 47 44 46 49 51 51 51 48 47 45 44 44 43 40 38 38 37 37
44 45 46 48 49 49 49 46 44 43 43 43 45 44 45 46 46 45 44 43 43 40 39 37 37 37 36
42 42 43 46 49 48 48 48 47 40 41 39 39 40 39 41 44 43 43 42 40 38 37 37 36 36 35
42 42 43 44 46 46 47 46 36 38 39 35 35 35 35 37 43 42 40 39 38 37 37 36 35 35 35
44 44 45 45 46 45 43 39 37 34 33 32 31 30 32 32 36 39 39 38 36 35 35 35 35 34 33
40 42 44 44 43 41 42 40 36 30 32 31 30 29 27 29 31 32 35 35 34 34 34 34 34 31 29
39 41 41 35 35 35 35 38 36 33 33 32 29 27 27 25 26 27 21 21 24 28 32 33 33 31 26
35 35 34 33 33 32 33 33 33 34 34 32 28 27 25 23 21 19 19 20 19 19 18 22 27 29 30
33 33 34 32 30 30 30 30 29 29 29 28 28 26 25 24 20 19 18 20 20 20 20 20 19 19 18
32 33 32 30 28 29 28 28 26 25 27 27 26 25 22 22 21 19 19 17 20 21 20 19 19 19 19
32 30 30 28 27 28 28 27 25 24 23 25 25 24 23 21 17 19 19 19 19 20 20 19 19 19 20
30 29 28 27 26 26 27 26 24 24 23 24 23 17 15 17 21 19 20 19 20 20 20 18 17 18 19
29 28 27 26 27 25 26 26 25 23 20 19 12 7 5 6 15 24 19 20 20 20 19 18 17 18 19

GFSFLT2_sfc_dewp_003.txt.gz
Dewpoint
46 48 50 51 53 54 54 54 53 54 56 56 55 55 55 55 56 57 57 57 58 59 59 57 55 52 50
44 45 47 49 51 53 53 54 53 53 54 54 54 55 55 56 55 55 56 56 56 57 57 56 54 52 49
43 45 46 48 50 51 51 53 51 51 53 53 54 54 55 55 55 55 55 55 55 54 54 53 52 49 48
39 41 43 44 47 48 49 47 47 49 49 50 51 52 54 54 54 53 53 53 53 52 52 50 48 47 46
36 38 39 40 42 44 45 47 49 47 47 46 47 48 50 52 52 52 52 52 51 51 49 47 46 45 43
35 36 37 39 41 42 42 42 42 44 44 46 45 45 48 50 52 51 50 49 49 48 46 45 43 42 41
36 37 38 39 40 39 39 42 43 45 43 42 40 43 41 44 50 49 48 47 46 46 45 43 42 41 40
38 40 40 41 42 42 42 42 43 44 42 40 37 39 36 39 48 46 45 44 44 43 42 42 41 41 39
39 40 39 39 42 42 41 40 39 41 38 37 32 31 33 35 42 44 43 43 42 41 41 41 39 38 36
34 35 35 37 39 38 37 34 35 36 34 34 30 30 28 29 32 38 38 40 40 40 41 39 38 34 32
32 33 33 34 35 36 35 33 32 33 36 35 30 29 28 25 27 29 31 33 36 38 37 36 35 34 30
31 31 32 32 34 33 31 32 32 31 34 33 29 27 25 24 23 25 25 26 25 22 23 31 35 36 34
30 30 32 33 32 29 30 30 28 27 28 30 29 28 27 24 22 22 23 21 19 19 19 20 21 21 25
30 31 32 31 29 29 28 28 26 24 26 27 26 26 23 24 24 23 22 21 21 20 20 20 20 19 19
30 29 28 28 28 28 28 27 25 23 23 25 26 25 24 23 21 21 19 19 20 20 20 19 19 19 19
29 29 28 27 27 27 27 26 24 23 23 24 23 21 20 21 23 19 19 19 20 20 20 17 17 18 20
29 29 27 27 27 25 26 26 24 22 21 20 17 15 13 10 14 22 19 19 19 19 20 19 18 18 20

GFSFLT2_sfc_dewp_006.txt.gz
Dewpoint
32 32 36 41 45 48 48 49 51 53 55 55 55 55 55 56 57 57 58 58 58 59 59 59 60 60 60
32 33 37 38 40 43 44 46 49 51 53 54 55 55 55 55 55 56 56 57 57 57 58 58 59 60 60
33 35 35 35 39 40 40 41 45 49 52 54 54 54 54 54 54 54 55 55 55 56 57 57 57 59 59
33 33 33 34 36 36 36 40 40 43 46 48 51 52 52 53 53 52 53 54 55 55 55 55 55 57 57
32 31 31 32 33 35 37 39 40 41 42 44 47 47 48 49 49 50 51 51 53 54 55 55 55 55 55
30 29 29 31 35 37 37 37 36 40 42 43 44 45 46 46 49 50 50 51 52 53 54 54 53 52 51
28 28 29 33 37 35 34 35 35 37 39 39 42 43 44 45 47 48 50 51 51 52 51 50 49 49 48
32 34 35 38 34 35 36 36 38 40 41 39 41 41 39 39 43 45 47 49 50 50 48 47 46 45 45
34 34 35 34 35 35 33 33 32 34 37 38 39 36 33 34 37 44 48 48 47 46 45 44 44 43 42
30 32 31 31 34 35 34 31 31 30 34 35 32 31 31 30 33 38 43 45 45 44 44 43 42 39 39
28 29 30 31 33 34 34 32 29 29 31 34 32 31 30 27 28 29 34 38 38 40 41 41 41 38 36
26 27 28 28 31 31 32 32 31 28 28 28 29 31 27 25 25 26 27 29 33 34 38 41 41 39 36
25 26 26 29 31 29 30 29 28 28 27 26 29 28 28 26 23 23 25 26 29 29 31 31 30 36 34
24 25 25 28 28 28 28 27 26 25 27 27 26 26 24 25 26 24 25 24 25 26 26 24 23 25 27
22 23 24 27 27 27 27 27 25 23 23 25 26 26 25 25 23 24 22 23 24 23 22 20 19 19 20
22 23 23 26 25 27 27 26 24 23 22 22 21 22 22 24 27 21 21 21 21 20 18 17 17 19 20
22 23 24 26 25 25 26 25 23 22 20 20 18 17 17 15 19 24 19 19 19 19 19 18 17 18 19

GFSFLT2_sfc_dewp_009.txt.gz
Dewpoint
34 35 32 32 34 37 37 37 42 46 48 48 48 50 53 54 55 55 56 57 58 59 60 60 61 60 60
34 31 31 33 35 36 35 38 39 41 43 47 46 47 49 52 53 54 55 55 56 57 58 59 59 60 61
31 30 32 33 33 34 35 36 37 40 41 43 45 45 46 47 50 53 53 54 54 55 55 56 58 58 60
30 29 29 30 31 30 31 33 36 37 41 42 43 44 46 48 50 51 51 52 53 54 54 54 55 55 56
28 29 28 28 28 30 31 31 35 38 38 40 41 43 45 43 47 49 49 50 51 52 52 54 54 54 55
28 27 27 29 30 31 32 32 32 35 36 36 38 39 42 42 44 46 48 48 49 49 51 51 52 52 53
27 29 27 29 33 33 33 33 31 33 35 33 38 39 41 42 44 46 46 47 47 48 49 50 51 52 52
26 26 29 31 30 31 31 33 34 33 34 32 36 35 41 44 44 44 44 44 45 46 47 49 50 51 52
28 29 29 30 31 31 32 31 28 31 33 32 34 36 37 37 38 39 41 42 44 45 47 49 48 48 49
25 25 27 28 31 31 33 29 29 28 33 31 32 32 33 35 34 33 34 47 47 48 47 46 44 42 42
24 25 26 27 29 30 33 32 29 28 32 32 30 29 30 31 31 30 32 39 43 44 45 43 41 40 38
23 24 25 26 27 28 29 33 33 32 33 30 27 27 29 30 29 29 29 32 37 38 39 40 41 41 40
23 24 25 26 27 28 29 32 31 32 32 28 27 27 29 30 28 28 28 28 33 35 37 37 36 37 37
23 24 24 24 25 26 29 29 29 28 30 29 28 28 28 30 29 28 29 28 29 30 29 31 36 37 37
22 22 23 23 24 26 29 29 27 26 25 27 28 29 29 29 26 27 27 26 28 28 28 26 27 32 33
22 23 23 23 24 27 28 28 25 24 23 24 24 25 26 26 29 24 25 24 26 28 28 25 24 27 29
23 23 23 23 25 26 27 26 24 23 22 21 20 19 21 19 23 27 23 24 24 24 24 21 22 21 22

GFSFLT2_sfc_dewp_012.txt.gz
Dewpoint
26 26 25 26 25 26 30 30 30 35 37 40 41 44 45 48 47 49 51 52 53 54 56 57 58 59 61
26 25 26 27 27 26 25 24 28 31 34 36 38 42 45 45 47 45 47 48 51 54 55 55 56 57 60
27 28 28 27 27 28 27 26 26 34 34 35 38 40 41 44 45 45 46 48 49 52 54 55 55 56 57
29 28 28 27 26 26 26 29 30 29 33 35 37 40 40 41 43 44 46 47 50 52 52 52 53 54 55
29 27 24 24 24 27 27 28 31 31 35 34 35 37 38 38 39 42 43 45 49 49 49 50 51 51 54
28 25 23 24 25 26 29 29 27 31 31 32 33 33 35 36 38 42 43 45 46 48 48 49 48 50 51
25 25 24 26 28 29 30 29 28 29 32 31 34 35 35 35 37 38 43 45 45 46 47 47 46 47 50
23 26 29 29 27 27 29 31 32 32 33 32 34 33 35 36 40 40 42 44 44 45 45 46 45 46 48
28 27 26 27 28 29 29 29 28 30 32 32 33 32 35 33 36 38 40 40 41 42 43 43 45 46 47
22 22 23 25 27 27 29 28 27 27 30 31 30 32 28 36 36 36 37 37 40 46 46 45 46 46 45
21 23 23 25 26 27 28 28 27 26 29 32 30 30 29 28 32 35 34 33 40 44 46 46 45 44 43
22 23 23 24 27 27 28 28 29 29 30 33 30 28 27 26 26 33 33 32 37 39 40 42 43 43 43
23 23 24 25 27 27 28 29 29 31 33 32 30 28 28 26 26 32 31 31 34 36 36 36 37 38 39
24 24 25 24 25 26 27 28 28 30 33 31 30 29 27 28 30 32 32 30 31 33 34 34 36 36 37
23 23 23 24 25 26 27 28 28 27 27 29 30 30 30 30 30 31 30 29 31 32 32 30 33 35 35
23 23 24 24 24 26 28 28 26 25 24 24 25 27 28 28 30 27 28 28 30 31 32 29 29 35 36
23 23 23 23 24 27 27 26 25 25 23 22 21 22 24 20 25 30 26 28 28 28 28 27 26 30 36

GFSFLT2_sfc_dewp_015.txt.gz
Dewpoint
23 25 26 26 26 27 29 28 27 32 33 33 33 35 36 38 39 39 41 44 45 47 47 50 53 54 56
24 25 25 26 26 27 24 23 25 30 32 32 34 36 36 37 40 42 43 44 45 44 45 47 49 53 55
25 26 26 27 27 25 22 23 22 30 32 31 32 35 36 38 39 40 42 43 43 43 47 49 49 51 54
25 26 27 27 26 23 22 22 23 22 27 29 32 32 36 36 37 37 40 40 39 42 45 46 50 52 52
28 28 26 23 22 22 21 23 24 26 27 27 28 31 30 32 33 37 38 38 38 41 44 45 48 50 50
30 28 23 22 20 22 25 26 24 25 25 25 27 28 29 31 35 36 35 37 38 39 41 44 47 48 49
24 23 20 22 26 28 27 23 22 23 27 26 30 30 32 30 33 34 36 38 39 40 42 45 46 47 48
21 21 24 26 26 22 23 27 28 28 28 27 30 30 29 31 32 35 34 38 40 42 43 44 46 46 46
26 26 26 26 25 24 26 25 23 25 26 26 28 28 29 30 30 34 37 35 38 39 38 40 42 43 43
21 21 22 23 26 25 26 24 24 22 25 25 25 27 26 28 32 31 30 34 37 40 40 42 42 42 42
19 20 21 23 24 24 25 26 24 23 25 26 26 27 27 27 28 30 30 34 34 35 46 47 46 44 43
21 21 22 22 23 24 25 26 27 26 27 28 27 26 27 25 23 27 28 34 32 35 38 43 46 46 45
22 22 23 24 24 24 26 27 27 28 29 30 30 29 27 24 23 24 28 32 32 33 34 35 36 39 39
22 23 23 23 23 25 25 25 25 26 32 30 29 28 25 26 26 25 30 29 31 32 33 33 34 37 38
22 22 22 22 23 24 25 26 26 25 25 26 28 28 29 28 27 29 29 29 31 32 32 32 32 35 38
21 22 22 22 22 24 26 27 25 25 24 23 23 23 27 28 30 28 28 29 31 32 33 32 31 35 38
21 22 22 22 23 24 25 26 25 24 23 23 21 20 23 20 25 31 27 29 29 28 29 30 31 33 37

GFSFLT2_sfc_dewp_018.txt.gz
Dewpoint
21 21 23 24 23 25 27 26 27 32 32 32 31 31 33 34 36 36 38 38 39 40 42 43 44 48 47
23 25 24 25 24 25 26 25 26 28 30 30 30 31 33 32 32 33 37 36 38 41 41 44 46 46 45
24 26 26 25 25 26 25 23 21 26 27 29 30 31 32 32 33 34 36 37 39 38 38 42 42 42 43
26 27 25 26 29 26 21 20 19 19 25 28 30 30 31 31 32 32 33 34 35 36 38 39 40 43 44
28 26 26 23 22 21 19 19 21 23 25 22 22 24 25 30 30 32 33 35 36 38 39 38 40 41 44
26 22 19 20 23 21 21 22 23 24 20 21 24 24 26 27 33 33 37 34 33 35 37 37 37 40 41
19 19 22 27 25 24 26 26 23 22 24 23 24 26 28 26 30 32 35 36 33 34 37 37 37 38 41
20 23 25 23 22 21 22 24 25 24 24 22 26 23 24 27 31 31 32 33 36 40 38 40 41 42 43
30 28 25 25 24 21 24 23 20 21 23 23 24 23 24 25 27 31 36 35 32 33 34 36 38 39 39
18 18 21 21 26 23 24 22 21 20 22 22 22 24 22 25 28 29 30 33 32 35 35 37 37 36 37
17 19 20 22 23 23 24 24 22 21 23 24 24 24 24 24 26 30 28 29 30 32 37 38 40 39 37
19 21 21 21 22 22 23 24 25 25 27 27 25 25 24 24 22 24 25 28 31 32 32 38 47 44 43
21 20 21 22 23 23 24 25 25 26 28 29 28 27 21 21 22 23 26 27 31 32 33 35 36 37 41
22 22 22 22 22 23 23 23 24 26 29 28 25 25 20 23 25 24 26 27 31 32 33 33 36 39 39
21 21 21 21 21 22 24 25 25 25 24 25 24 24 24 25 24 27 28 29 32 32 33 32 33 37 38
21 20 20 21 21 23 23 23 22 23 23 24 21 19 22 27 29 26 28 28 30 32 33 32 32 34 38
20 21 20 20 21 22 23 23 21 22 23 24 21 19 19 18 25 33 27 28 31 31 32 32 32 34 36

GFSFLT2_sfc_dewp_021.txt.gz
Dewpoint
20 21 22 25 23 24 26 25 25 32 33 33 32 31 31 31 32 33 34 36 36 37 37 39 42 43 43
22 25 25 24 25 26 24 26 29 32 31 30 30 30 30 31 31 32 33 33 34 36 37 37 38 43 44
26 24 25 28 29 30 25 24 23 26 27 28 28 29 31 32 31 30 31 32 33 33 34 37 42 42 41
25 28 25 27 27 19 17 20 22 20 23 26 29 31 29 29 29 30 30 32 33 34 33 36 37 38 38
28 28 21 19 17 18 20 26 22 22 23 25 24 21 23 27 28 29 31 32 35 37 36 36 38 37 39
26 22 18 18 19 23 24 24 22 23 21 21 22 22 23 24 28 31 31 30 31 33 37 36 35 35 36
20 20 20 21 26 26 23 22 22 22 22 21 22 22 23 22 29 29 29 31 33 33 33 33 34 33 35
21 21 26 26 20 19 21 24 24 22 21 20 21 20 21 22 28 28 31 32 35 34 36 38 37 37 36
29 28 25 25 24 22 23 22 19 19 21 20 21 21 22 22 23 29 30 31 32 32 32 32 32 33 33
16 18 20 21 26 23 24 20 20 18 20 21 21 22 21 23 25 27 26 30 31 34 33 32 33 31 32
16 18 20 21 20 22 24 23 20 20 22 24 23 22 22 21 23 25 27 28 28 29 34 36 36 35 32
19 20 19 21 22 23 24 25 25 25 26 27 24 24 22 21 20 23 25 27 29 29 31 35 38 39 37
20 20 21 23 24 23 24 24 24 26 28 29 27 24 22 20 21 22 25 27 30 31 32 32 36 39 37
21 21 22 22 22 23 22 23 24 23 25 27 28 25 20 20 22 23 26 26 29 32 32 33 37 38 39
21 20 20 21 21 21 22 23 22 22 22 24 25 23 21 22 21 26 26 28 31 32 32 32 34 37 38
20 20 20 20 20 22 22 22 22 22 22 24 23 20 21 23 30 27 28 28 32 32 34 32 32 36 38
20 21 20 19 20 20 22 23 22 23 24 24 23 20 17 17 24 34 27 29 32 32 33 32 32 34 35

GFSFLT2_sfc_dewp_024.txt.gz
Dewpoint
21 22 23 24 24 25 26 26 28 33 32 31 31 31 32 32 33 32 32 33 35 38 38 39 40 41 41
25 25 22 22 23 27 28 25 27 25 28 29 30 30 30 30 30 31 32 33 35 38 38 37 37 38 39
21 22 22 26 28 25 19 18 16 23 27 28 29 30 30 31 33 33 34 30 30 31 32 33 35 38 38
24 28 26 30 23 19 17 18 18 19 28 27 29 29 30 30 29 28 29 30 31 31 32 33 33 34 35
23 25 24 19 18 19 18 19 23 25 20 20 21 22 22 26 26 28 28 29 31 32 33 35 36 38 37
27 20 19 19 19 20 23 23 17 20 20 20 22 20 21 22 27 28 29 30 30 33 35 33 32 34 36
21 20 19 21 26 25 21 21 21 21 22 20 20 19 20 20 27 28 29 29 30 32 34 34 35 36 36
19 21 25 22 20 20 22 24 24 21 20 19 20 19 20 20 27 28 29 30 31 32 35 36 35 34 34
28 25 24 25 24 24 22 20 17 17 19 20 20 20 21 21 22 28 29 30 30 31 33 34 34 38 37
16 17 20 20 25 22 24 19 19 17 19 20 20 21 20 22 23 24 23 28 29 32 34 34 34 32 32
16 18 19 20 20 22 25 23 20 19 21 24 23 22 22 21 21 22 24 25 27 29 33 35 36 36 32
19 19 20 21 22 23 24 25 25 24 25 25 23 24 23 21 18 20 22 25 28 29 30 33 36 37 38
20 20 21 22 23 23 23 23 23 24 27 27 26 25 24 21 19 19 22 24 27 30 31 32 32 32 32
20 20 21 21 21 22 22 21 21 22 24 26 27 26 21 20 20 19 22 24 29 31 32 33 36 37 34
20 19 19 19 20 21 22 22 20 21 22 24 26 26 23 21 19 22 25 28 31 32 32 32 34 36 37
19 18 19 20 19 21 21 22 21 22 23 24 24 22 22 24 27 26 29 29 31 32 33 31 31 34 37
18 19 20 19 19 19 20 22 21 24 24 24 24 23 19 19 24 32 29 31 31 32 32 32 31 32 35

GFSFLT2_sfc_dewp_027.txt.gz
Dewpoint
22 23 23 22 21 22 24 24 27 35 32 30 30 30 30 31 33 35 35 35 36 37 37 38 39 39 39
24 21 20 21 22 23 27 34 26 26 28 28 29 30 30 32 31 31 33 33 34 34 34 36 37 39 40
21 22 23 25 25 28 22 19 17 23 27 28 29 30 31 30 31 32 32 34 34 35 36 36 35 35 36
25 26 23 27 26 18 16 18 18 18 24 28 29 27 28 29 29 28 28 29 30 31 31 31 32 33 35
23 26 22 18 16 18 18 20 23 26 20 19 19 20 21 26 26 27 28 29 30 31 32 33 34 34 35
22 20 17 18 18 20 24 21 18 20 19 21 21 20 20 21 26 28 29 30 30 32 34 35 35 35 35
19 18 18 21 27 24 22 22 20 20 22 21 20 18 19 19 26 28 29 29 30 30 31 32 33 33 34
18 21 25 23 20 20 23 24 23 20 19 19 19 18 19 20 27 28 29 29 29 30 31 31 32 34 35
29 26 25 25 25 25 22 20 17 17 19 19 19 20 21 21 21 27 28 28 28 29 30 31 32 32 33
16 18 21 21 25 22 24 20 18 17 18 19 20 21 19 21 23 23 22 27 28 29 31 33 33 31 33
17 18 19 20 20 22 24 23 20 19 21 23 22 21 21 20 22 23 24 24 23 26 31 34 35 35 32
19 19 19 20 21 22 23 24 25 24 25 25 22 22 21 20 19 22 23 25 25 26 27 31 35 36 37
19 19 20 21 22 22 22 23 23 24 25 25 25 24 24 22 21 20 23 23 25 27 30 32 32 32 30
19 19 20 19 19 20 20 20 21 21 24 26 28 27 24 23 23 20 23 23 28 31 32 33 33 33 31
18 18 18 18 18 20 20 21 19 20 22 24 26 26 26 25 21 24 26 29 32 32 32 32 33 34 33
17 17 17 18 18 19 20 20 20 21 22 24 24 23 23 25 27 25 29 31 32 32 33 31 31 34 36
17 17 19 17 18 18 19 20 20 22 24 25 24 22 20 20 25 30 28 32 32 32 32 32 31 32 37

GFSFLT2_sfc_dewp_030.txt.gz
Dewpoint
22 22 23 23 21 22 24 23 25 33 36 32 31 30 30 31 33 34 35 36 36 37 39 40 40 41 41
23 23 21 22 23 24 26 28 28 30 28 28 29 30 30 31 32 33 33 33 34 34 35 36 37 37 39
21 22 23 24 27 26 21 19 16 23 27 28 29 30 31 32 32 32 31 32 34 33 33 34 36 38 39
23 24 27 25 20 17 16 18 18 18 25 27 28 28 29 29 28 28 28 29 30 31 31 32 32 33 34
25 22 20 17 17 17 17 19 23 21 19 19 20 20 21 26 26 27 28 29 30 31 32 33 34 34 35
21 18 17 17 18 19 24 21 19 21 20 22 22 21 20 20 26 28 29 30 30 31 31 33 33 33 35
18 18 17 20 26 24 22 21 20 21 22 21 20 18 19 18 26 27 29 29 30 30 32 33 33 33 33
19 21 27 23 20 21 25 25 23 20 19 19 19 18 18 19 26 28 29 29 29 30 32 32 33 33 33
29 27 25 26 25 24 22 20 17 17 19 18 19 19 20 20 21 27 28 28 29 30 31 31 31 32 31
16 18 20 20 25 21 22 19 18 17 18 20 20 21 18 20 22 22 22 27 29 30 32 32 34 33 32
16 17 19 19 19 20 22 22 19 18 20 23 21 20 20 19 21 23 24 24 26 27 31 33 35 35 31
18 19 18 19 20 21 21 22 23 23 24 24 22 21 20 19 18 22 24 26 27 27 28 30 34 36 37
19 18 18 19 20 20 21 21 22 23 24 24 24 24 24 22 22 23 25 25 27 27 29 30 32 33 31
18 18 19 18 18 19 20 20 20 20 24 25 27 27 24 24 25 24 26 25 29 32 33 33 34 34 32
18 17 17 17 17 19 19 20 18 19 20 23 26 27 27 26 24 26 27 29 32 32 32 32 33 34 32
17 17 16 16 17 18 18 18 19 20 22 24 24 23 23 24 28 26 29 30 32 33 33 31 31 35 33
16 16 18 17 17 16 17 18 18 21 24 24 23 23 21 19 23 28 28 31 31 31 32 31 31 35 34

GFSFLT2_sfc_dewp_033.txt.gz
Dewpoint
22 23 22 22 21 23 25 24 26 31 31 31 31 31 31 32 33 34 35 35 36 37 38 39 41 41 41
22 23 21 22 23 25 25 25 22 25 28 29 30 31 31 31 32 32 32 33 34 36 36 37 37 38 38
22 22 24 26 24 22 18 17 16 24 27 28 29 30 31 31 31 31 31 31 32 32 33 34 35 37 38
24 28 24 23 21 19 18 20 19 19 26 27 28 28 29 30 29 29 29 30 31 31 31 32 33 35 35
26 24 22 19 17 19 19 21 24 23 21 21 21 22 23 27 26 28 28 29 30 31 32 33 33 33 34
25 20 17 17 19 21 25 22 21 21 20 21 22 21 22 22 26 28 29 30 30 31 32 33 33 34 34
19 18 19 21 27 27 24 23 21 22 22 21 20 19 20 19 26 27 29 29 30 31 32 32 33 34 34
21 22 27 27 22 22 24 25 24 21 20 20 20 20 20 21 27 28 29 29 30 31 32 32 33 32 33
28 28 26 26 25 24 24 23 19 18 20 20 20 22 22 23 22 26 27 29 30 32 33 34 34 35 33
17 17 20 20 25 21 24 21 21 19 19 21 22 23 21 21 25 24 24 28 30 31 32 34 36 34 34
16 17 18 19 19 20 23 24 21 20 21 24 24 23 23 23 24 26 26 27 29 31 32 33 33 36 32
17 20 20 21 22 23 23 24 24 24 25 26 24 24 23 22 22 26 27 30 32 32 32 32 34 35 37
20 21 21 22 23 23 24 24 24 25 26 26 26 26 26 25 25 26 27 29 31 32 33 33 33 33 32
20 20 21 21 21 22 21 22 22 22 26 27 29 29 28 27 27 27 28 28 32 33 33 33 34 35 34
20 19 19 20 19 21 21 22 20 21 22 25 29 30 29 29 26 28 28 30 32 32 32 32 33 35 32
19 19 19 18 19 21 21 20 20 21 22 26 27 26 27 29 28 29 30 30 32 33 33 31 31 33 32
19 18 19 20 19 19 19 20 20 21 24 27 26 26 23 23 27 28 30 30 31 31 32 31 31 34 35

GFSFLT2_sfc_dewp_036.txt.gz
Dewpoint
19 20 20 21 19 22 24 23 23 28 30 30 30 31 32 33 34 34 35 37 38 38 39 39 40 39 40
21 21 21 21 23 23 20 17 18 23 28 30 31 31 32 32 33 33 34 34 35 36 37 37 38 39 39
24 22 23 25 24 22 19 18 17 24 27 29 30 31 32 32 32 32 32 32 33 33 34 34 35 37 37
25 27 29 26 22 19 17 20 20 19 25 27 28 29 30 30 30 30 30 31 31 32 33 32 33 35 35
27 29 24 20 16 18 19 22 24 23 22 22 22 23 25 28 27 28 28 29 31 32 32 33 33 34 34
28 22 17 16 19 22 25 27 22 23 21 22 24 22 23 24 27 28 29 30 31 31 32 32 33 34 35
21 17 17 20 27 29 26 23 22 23 23 22 22 21 22 20 27 29 30 31 32 32 33 33 33 34 34
19 20 25 28 26 22 24 25 25 23 21 22 22 22 23 24 28 29 30 30 31 32 34 35 35 35 35
25 29 29 26 25 24 26 24 22 21 22 22 23 24 24 25 25 26 28 30 31 32 34 35 37 37 36
23 19 20 20 24 22 25 25 23 22 21 23 24 23 22 23 28 27 27 30 31 32 33 35 37 35 35
16 17 18 20 21 22 24 26 24 23 23 25 25 24 24 24 26 29 29 30 31 32 34 34 35 36 34
18 20 22 24 25 26 26 26 26 25 26 26 24 25 25 24 23 27 29 31 33 33 34 36 38 38 37
21 23 24 25 26 26 27 27 26 27 28 27 27 27 27 25 25 27 28 31 33 33 34 34 33 34 33
22 22 23 24 24 25 24 24 24 25 27 28 29 29 28 28 28 26 29 29 33 33 34 33 35 35 35
22 22 21 22 23 24 24 25 23 22 23 27 29 30 31 30 27 29 30 30 32 32 33 32 33 35 35
21 22 22 21 22 24 24 23 22 22 23 26 28 28 28 29 31 31 30 30 31 32 34 31 32 33 36
23 22 23 23 22 22 23 23 23 24 25 28 28 27 24 23 27 31 30 31 31 31 32 32 32 33 35

GFSFLT2_sfc_dewp_039.txt.gz
Dewpoint
21 22 22 22 22 23 25 24 24 29 30 30 31 32 33 33 34 35 35 36 37 38 39 41 41 40 41
22 23 23 23 22 24 24 21 21 24 28 30 31 31 32 33 33 34 34 34 35 36 37 37 38 39 40
22 23 23 24 27 26 22 21 17 25 28 29 30 31 32 32 32 32 32 32 33 33 34 35 36 37 38
23 25 26 28 26 21 18 20 21 20 26 28 29 29 30 30 31 31 31 31 32 33 33 33 33 34 36
26 27 27 22 20 19 19 22 22 26 23 23 23 23 25 28 27 29 29 31 31 33 34 34 34 35 36
28 25 23 20 19 21 23 24 24 23 22 21 23 23 23 23 28 29 30 31 32 32 33 34 35 35 35
24 21 20 20 24 25 26 24 21 22 23 23 23 22 23 21 28 30 31 32 33 33 33 34 35 36 36
21 21 22 24 29 31 24 24 24 23 23 22 22 21 23 24 29 30 31 31 31 32 33 34 34 36 38
25 27 29 28 25 23 24 24 21 21 22 22 23 24 23 23 24 28 29 30 32 33 34 34 35 36 37
23 23 21 20 25 22 25 25 23 21 22 23 23 23 21 22 26 25 25 29 31 32 33 34 35 36 36
19 18 19 20 22 23 25 26 24 22 23 24 23 22 22 22 23 25 25 27 28 29 33 34 35 36 35
18 20 21 23 25 25 25 25 26 25 26 26 24 23 22 21 20 23 25 28 30 30 31 34 36 36 37
21 22 23 24 25 25 26 26 26 25 25 25 26 26 25 23 23 24 25 27 29 31 33 33 33 33 33
22 22 23 23 22 23 24 23 23 22 24 25 27 28 26 26 26 26 27 26 30 32 32 33 32 33 34
23 22 21 21 21 22 23 24 23 21 22 24 26 27 28 28 27 26 26 28 31 31 31 31 31 32 33
22 21 22 21 21 22 23 22 22 22 23 24 25 26 26 27 28 27 26 27 29 30 31 30 29 30 33
22 21 21 22 21 20 21 21 21 22 23 25 26 25 24 21 24 29 28 28 28 30 30 30 30 30 33

GFSFLT2_sfc_dewp_042.txt.gz
Dewpoint
20 22 22 23 22 24 24 23 25 31 32 32 31 32 33 34 34 35 36 37 38 39 40 41 40 41 41
22 22 22 22 23 23 24 26 25 27 30 30 31 31 32 33 33 34 34 34 35 36 37 38 38 39 40
22 23 23 24 25 26 27 23 21 25 28 29 30 32 33 32 32 33 33 33 33 33 34 35 36 37 39
23 25 25 27 27 24 21 20 20 21 25 28 31 30 31 31 31 31 31 32 32 33 33 34 35 36 37
25 25 24 24 23 23 19 20 21 22 25 23 23 23 23 28 28 29 30 32 32 33 34 34 34 35 37
26 26 24 23 20 21 21 21 21 25 22 21 22 22 23 24 28 30 31 31 32 33 34 34 35 36 37
24 22 20 20 21 22 23 26 25 23 22 22 22 22 23 22 28 30 31 32 33 32 33 34 34 35 36
21 20 22 23 25 30 29 24 23 23 23 21 22 21 22 23 29 30 30 31 31 32 33 33 34 35 36
26 27 28 28 26 22 23 22 21 20 22 21 21 22 22 22 22 28 28 29 30 31 32 33 33 35 35
22 23 23 21 25 21 23 23 22 20 20 22 22 22 19 21 22 22 24 27 29 30 31 32 34 33 34
19 18 19 20 21 22 24 25 23 21 21 23 23 22 22 20 21 22 23 24 25 27 30 33 34 34 33
18 19 20 21 22 23 24 24 24 24 25 26 24 23 21 20 19 22 24 25 26 27 28 31 34 34 35
20 21 21 22 23 23 23 23 23 24 25 24 24 24 24 22 21 22 23 25 27 28 28 30 31 32 31
20 21 22 22 21 21 21 21 21 21 23 24 24 25 24 24 25 24 25 25 28 28 29 31 31 31 31
21 21 21 20 20 21 21 21 21 20 21 22 25 26 25 25 24 24 25 26 28 27 28 29 29 31 31
21 21 20 20 20 21 22 20 20 20 21 22 23 24 24 24 28 27 28 27 27 27 28 28 29 30 30
20 20 20 21 21 19 19 20 20 20 20 22 24 24 21 20 23 28 27 27 27 28 28 28 29 30 30

GFSFLT2_sfc_dewp_045.txt.gz
Dewpoint
21 22 22 23 23 23 25 23 25 31 33 32 32 32 32 33 33 34 36 37 38 39 40 41 41 41 41
22 23 23 23 23 23 24 25 26 30 30 30 30 31 32 33 34 34 33 35 36 36 37 37 38 39 40
22 24 24 25 25 26 27 27 24 27 28 29 30 31 33 33 32 33 32 33 33 33 34 35 36 37 38
24 24 25 25 25 25 23 24 21 20 24 27 30 31 30 30 31 31 31 32 33 33 34 35 36 37 38
24 24 23 23 23 23 22 21 21 22 22 23 25 23 23 27 27 29 31 32 32 33 34 36 36 37 38
25 23 23 22 21 21 21 21 20 24 24 24 23 22 22 23 28 30 31 31 32 33 34 35 35 36 37
24 24 23 21 22 22 24 25 25 24 23 22 22 21 22 21 28 29 30 31 32 31 33 33 34 35 35
25 23 22 23 25 27 25 23 23 22 21 21 22 21 21 22 28 29 30 30 31 31 31 32 32 33 34
27 27 28 28 25 23 22 21 19 19 21 21 20 21 21 21 22 27 27 28 29 30 31 32 32 33 33
22 21 21 21 25 21 22 21 20 20 20 21 21 22 19 20 21 21 21 26 28 29 30 31 31 30 32
16 17 18 19 20 22 23 24 22 21 22 23 23 22 22 20 21 22 22 22 23 25 29 30 31 32 32
17 18 20 21 22 22 23 23 23 23 24 24 22 22 21 19 18 20 22 23 24 25 26 29 31 33 33
19 20 21 22 22 23 22 22 21 23 24 23 23 22 22 20 19 20 22 23 25 26 26 28 28 29 29
19 20 21 21 21 21 20 20 20 19 22 22 23 23 22 22 22 22 23 23 25 26 28 28 28 29 30
19 20 20 20 20 21 20 19 19 18 18 20 22 23 23 23 22 22 23 24 26 27 28 28 28 29 28
20 20 19 19 19 20 22 20 18 18 19 20 20 21 21 23 26 24 25 25 26 27 28 27 26 27 29
19 19 19 19 20 19 19 19 18 18 19 20 22 23 19 18 22 28 27 28 27 27 27 27 27 28 29

GFSFLT2_sfc_dewp_048.txt.gz
Dewpoint
21 22 22 23 23 24 25 24 25 31 32 33 33 32 33 33 33 34 35 36 39 38 39 40 41 41 41
21 22 23 24 24 23 24 25 26 30 32 32 31 31 32 33 33 34 35 34 35 36 36 36 37 38 39
22 23 24 24 25 25 26 27 26 28 29 29 30 31 32 33 33 32 32 32 33 33 34 34 36 37 38
23 23 24 25 25 24 22 22 22 21 25 27 30 31 31 31 31 31 31 31 33 33 33 34 35 37 38
23 20 23 23 22 22 21 21 21 22 22 23 24 25 26 28 28 29 30 32 33 33 34 34 35 36 38
18 24 24 23 23 22 21 21 20 24 24 23 23 22 22 23 28 29 30 31 32 32 33 34 35 36 37
25 24 24 24 23 22 23 25 24 23 22 21 21 20 22 22 28 29 30 31 31 31 31 32 33 35 36
26 26 26 25 26 26 23 23 22 21 21 19 20 20 21 21 27 29 29 30 31 31 31 31 31 32 33
27 28 28 28 25 23 21 21 18 18 20 20 20 20 21 20 21 27 28 28 28 29 30 31 31 31 31
20 19 20 20 25 21 21 19 19 18 20 19 20 21 18 20 21 22 21 26 27 29 30 30 30 27 29
16 17 18 19 20 22 23 22 21 20 21 23 22 20 21 19 20 22 22 21 22 23 27 29 30 30 29
18 18 20 21 21 22 23 23 23 23 23 23 21 20 19 18 17 19 21 22 23 23 24 27 30 31 31
19 20 20 21 21 22 22 22 20 22 23 23 23 22 21 19 18 19 21 22 23 24 24 25 27 27 27
19 20 21 21 20 20 20 20 20 19 21 22 21 21 20 20 21 20 21 21 24 24 25 26 27 28 28
19 19 19 19 19 19 19 19 18 18 18 19 21 21 21 22 20 21 22 22 23 24 25 26 27 27 27
19 19 18 18 18 19 20 20 18 17 18 19 19 19 19 21 25 22 22 23 25 26 27 26 26 27 28
18 17 18 18 20 18 18 19 18 18 18 19 20 21 19 17 21 25 26 27 28 27 26 26 26 27 28

GFSFLT2_sfc_dewp_051.txt.gz
Dewpoint
21 21 21 22 23 24 26 25 25 31 32 33 33 33 33 33 33 34 35 36 38 39 40 41 40 41 41
20 22 22 23 24 24 24 24 25 29 32 32 32 32 32 33 33 34 35 36 37 35 36 37 38 38 40
21 23 23 24 24 25 25 25 26 28 29 30 30 31 32 33 33 33 33 33 33 33 33 34 35 35 37
23 23 23 24 25 24 22 23 22 21 25 27 30 30 31 31 32 32 31 32 33 33 33 33 33 35 37
23 21 22 24 23 23 23 22 22 23 23 23 24 25 25 28 28 29 30 31 32 33 33 34 34 35 36
19 22 25 23 23 23 23 22 21 23 23 22 23 22 22 22 27 29 31 31 32 32 32 34 34 35 35
24 24 24 24 24 24 24 24 23 22 22 20 21 20 21 20 27 29 30 31 31 31 31 32 33 33 35
25 25 26 26 27 27 24 22 22 21 21 18 19 19 20 21 27 29 30 30 31 31 31 31 31 32 32
27 28 28 28 25 22 21 21 18 18 20 19 19 20 20 20 21 28 28 28 29 29 30 30 31 31 30
19 18 20 19 25 21 20 18 20 19 20 19 20 20 18 21 21 22 20 26 27 29 30 30 30 27 28
16 17 18 19 20 21 22 19 20 20 21 23 21 20 20 18 20 21 21 21 21 23 27 28 29 29 28
18 19 20 20 21 21 22 22 23 22 22 24 20 18 18 17 16 19 20 22 22 22 23 26 29 30 31
19 19 20 20 21 21 21 21 20 22 23 22 22 21 21 18 17 18 20 21 22 22 23 23 23 24 25
19 19 20 20 20 20 19 19 19 18 20 21 21 21 19 20 20 19 20 20 21 23 23 24 25 26 26
19 19 19 19 19 19 18 18 17 17 18 19 21 21 21 20 19 19 20 20 22 23 23 23 25 26 27
18 18 17 17 17 19 20 18 17 17 17 19 19 19 19 21 24 20 21 21 22 24 26 25 26 27 27
16 16 17 17 20 18 18 18 18 18 19 20 20 21 19 17 21 24 25 26 27 27 26 26 25 26 26

GFSFLT2_sfc_dewp_054.txt.gz
Dewpoint
21 21 21 21 22 24 25 25 25 31 32 32 33 33 33 34 34 34 35 36 37 38 39 40 42 41 40
20 21 21 22 23 23 24 24 25 29 32 32 32 32 33 33 33 34 35 35 35 36 36 38 38 38 39
21 23 23 24 24 24 25 26 25 29 30 30 31 32 33 33 33 33 33 33 34 34 34 34 35 36 37
23 22 23 24 24 24 23 23 23 23 26 28 30 30 31 31 32 32 32 32 33 33 33 33 33 34 35
23 22 22 24 24 24 23 23 23 24 23 23 24 24 25 28 28 29 30 31 32 33 33 33 34 35 36
18 22 24 25 23 24 23 23 21 23 22 22 22 22 22 22 27 29 31 31 32 32 32 33 34 35 35
25 24 23 24 23 23 24 24 23 23 22 20 21 20 21 21 27 29 30 31 32 32 32 31 32 33 34
25 25 25 26 26 26 25 23 22 22 22 19 19 19 20 21 27 29 30 30 31 31 31 31 31 32 33
26 28 28 28 25 23 21 20 18 18 20 19 19 19 20 20 20 27 28 28 29 29 30 31 31 31 30
19 18 20 19 25 22 19 16 19 18 20 17 17 20 16 21 21 22 20 25 27 29 30 30 30 27 28
17 17 19 19 20 21 22 16 20 18 20 23 17 20 20 18 19 21 21 20 20 22 26 28 29 29 28
18 18 19 20 20 21 21 21 22 22 22 23 20 16 18 17 16 18 20 21 22 22 22 25 28 30 30
19 19 19 19 20 20 20 20 19 20 22 21 21 21 20 17 17 18 19 20 22 21 22 22 23 23 23
18 19 20 16 19 19 18 18 18 17 19 19 19 19 18 19 20 18 19 19 21 22 23 23 24 25 25
18 18 18 18 18 18 17 17 16 16 18 19 21 22 22 21 19 19 20 20 21 21 22 23 24 25 25
17 16 16 16 17 18 20 18 17 17 18 19 20 20 21 22 25 20 20 21 22 23 24 24 24 27 27
15 15 16 17 20 18 17 18 19 19 19 20 22 23 20 18 21 26 25 25 26 26 26 25 25 26 27

GFSFLT2_sfc_dewp_060.txt.gz
Dewpoint
34 34 33 32 28 25 26 25 24 29 31 33 33 34 34 35 35 36 36 37 37 38 39 40 41 41 41
31 31 29 30 29 27 26 23 24 27 30 32 33 34 34 34 34 35 35 35 36 36 37 38 38 38 39
28 28 30 30 28 26 24 24 23 27 28 29 31 32 33 34 34 34 34 34 35 35 35 36 36 37 38
29 28 26 25 26 24 23 23 21 21 26 28 30 30 31 32 32 32 32 33 34 34 34 34 34 35 36
26 26 26 23 22 23 21 21 24 25 24 24 23 24 25 28 28 29 29 31 32 33 34 34 34 35 36
28 24 22 22 22 22 23 24 23 25 23 23 24 22 23 24 27 29 31 32 32 33 33 33 33 34 35
24 23 22 23 28 28 25 25 24 24 23 22 23 21 23 21 27 29 30 31 32 32 33 33 32 33 32
24 23 24 24 25 29 27 25 24 23 23 24 23 22 22 23 28 29 30 30 31 31 32 32 31 32 32
25 27 29 29 28 25 25 26 23 22 23 23 23 24 25 25 24 27 27 28 30 30 31 31 31 32 30
23 22 22 21 24 24 25 25 25 23 24 24 24 24 23 23 25 24 24 27 28 29 30 30 30 27 29
19 19 20 22 22 23 24 27 24 24 25 28 26 25 24 23 25 26 27 26 26 28 29 30 30 30 29
20 22 24 26 27 28 27 27 27 27 28 29 25 24 24 22 22 25 28 29 31 30 31 30 30 30 30
23 25 27 28 28 28 31 31 29 29 28 28 27 25 24 22 22 23 25 27 29 30 30 31 30 30 27
23 24 25 26 26 27 26 26 25 27 33 31 29 27 23 23 24 23 25 25 29 29 30 29 29 27 26
23 23 23 24 25 27 26 26 25 24 26 29 31 30 29 27 24 24 24 27 29 29 29 28 29 29 29
23 23 23 24 24 26 28 28 25 24 24 28 28 26 28 29 29 27 28 28 30 31 31 29 29 30 30
23 23 23 23 24 25 26 27 26 26 27 28 29 28 25 23 26 29 29 31 30 28 29 29 29 30 31

GFSFLT2_sfc_dewp_063.txt.gz
Dewpoint
35 35 34 34 34 31 31 28 27 31 32 32 33 34 34 36 36 36 37 37 38 38 39 39 38 41 41
33 33 32 33 31 29 28 26 26 27 31 32 33 34 34 35 35 35 35 36 36 37 37 38 38 38 39
31 31 30 31 30 30 27 26 23 28 29 28 30 32 33 34 35 35 35 35 35 35 36 36 37 37 38
28 30 30 30 28 26 25 26 24 21 26 29 30 31 31 32 32 32 32 33 33 34 34 34 34 35 36
29 29 28 27 25 25 24 24 25 26 26 26 26 26 27 29 28 29 30 30 32 33 34 34 34 34 35
31 26 24 24 24 25 27 25 23 27 25 25 26 24 25 26 29 30 30 31 32 33 33 34 34 33 33
26 24 23 25 29 28 26 26 24 25 25 23 25 24 25 23 29 30 31 31 32 32 33 33 33 33 33
26 25 26 26 26 28 28 27 26 25 26 24 25 24 25 25 29 30 31 31 31 32 32 33 33 33 32
25 26 27 28 29 27 26 25 25 24 25 25 25 25 25 25 25 29 29 29 30 31 32 32 32 32 30
24 24 25 23 24 24 26 26 24 24 27 24 25 25 24 26 27 26 25 29 30 30 31 31 31 28 28
22 21 21 23 24 25 26 28 25 24 26 28 25 25 25 24 25 26 26 26 27 28 30 31 31 30 29
21 23 25 27 28 29 28 28 28 28 27 28 26 24 23 21 20 23 24 26 27 28 28 30 31 30 31
25 27 26 27 27 27 28 30 29 29 29 27 27 26 25 22 21 22 23 24 25 26 29 29 29 30 29
24 25 26 25 25 26 26 25 25 24 28 30 30 29 25 25 24 23 23 23 25 25 27 28 29 29 28
23 23 23 23 24 26 25 26 25 25 25 27 29 30 30 27 25 25 25 26 28 28 28 28 30 30 30
23 22 23 22 22 24 25 26 26 25 25 27 27 27 27 27 30 26 27 28 28 29 30 29 27 28 29
24 23 22 22 22 23 23 25 25 25 25 27 27 27 24 22 25 30 26 25 26 26 27 28 28 29 29

GFSFLT2_sfc_dewp_066.txt.gz
Dewpoint
34 35 35 36 36 35 34 32 31 33 33 33 33 34 35 35 36 37 37 38 38 38 39 39 39 40 40
33 33 33 33 33 32 29 28 28 30 31 32 33 33 33 34 35 35 36 36 36 37 36 37 37 38 39
32 33 33 31 31 30 30 30 28 28 29 28 29 31 33 34 34 35 35 35 35 35 35 36 36 37 38
29 30 30 30 29 26 25 26 24 23 26 28 30 31 31 31 32 32 32 32 33 33 34 34 34 35 36
29 28 27 26 25 25 23 24 25 25 25 26 26 26 27 30 29 30 30 32 32 33 34 34 34 34 34
26 26 24 23 23 26 25 23 20 25 25 24 26 26 26 26 30 31 31 32 32 33 33 34 34 33 33
26 24 23 24 24 22 24 22 23 25 25 24 24 24 26 25 30 31 32 32 33 33 33 33 33 33 33
25 24 24 25 26 25 25 25 26 25 25 22 24 24 25 26 30 31 31 32 31 32 32 33 32 32 33
23 24 26 27 28 25 21 19 21 23 24 23 23 24 24 24 25 29 29 29 30 31 32 32 32 32 31
23 24 24 24 24 24 23 14 24 21 24 20 21 22 21 24 24 25 25 29 29 30 31 31 31 28 29
22 20 21 22 23 24 24 18 23 24 25 27 21 25 24 23 22 23 24 25 24 25 29 30 31 31 30
20 21 22 23 27 29 28 29 28 27 28 28 25 24 23 22 21 22 23 24 24 23 25 28 31 31 31
21 23 27 27 27 26 28 29 29 29 29 28 28 27 26 23 22 23 23 23 25 23 21 25 25 27 27
19 21 22 25 24 27 26 26 26 26 26 29 28 28 27 26 25 23 24 23 25 26 26 26 27 28 28
22 22 22 23 23 25 26 25 24 23 25 28 29 29 29 27 26 26 25 26 26 27 28 28 28 29 29
24 23 23 23 23 24 25 24 23 22 25 26 27 27 27 27 30 27 27 27 27 26 26 26 26 27 28
24 24 24 23 22 22 23 23 22 23 25 26 27 26 23 20 23 30 26 26 26 26 26 26 27 28 28

GFSFLT2_sfc_dewp_069.txt.gz
Dewpoint
35 35 35 36 36 38 37 36 34 36 36 35 34 34 34 35 36 36 37 37 38 38 38 38 38 39 40
32 33 34 35 35 34 33 30 29 31 33 32 32 33 32 32 34 35 35 36 36 36 37 37 38 38 38
32 33 33 33 32 31 30 30 29 32 31 29 29 31 32 33 34 34 33 34 34 35 35 36 36 37 38
30 30 30 30 29 27 26 26 25 23 26 28 29 30 31 32 31 31 31 31 32 33 33 34 34 35 36
30 29 28 26 26 26 25 24 24 25 25 25 25 26 27 30 29 30 31 32 32 33 33 34 34 34 34
26 26 25 23 24 25 23 22 20 25 24 24 26 26 26 26 30 31 31 32 33 33 34 34 34 34 34
26 24 23 24 23 21 23 22 22 25 25 24 24 24 25 25 30 31 32 32 33 33 33 33 32 32 33
25 24 24 25 25 23 22 24 25 25 25 18 24 23 24 25 30 30 30 30 30 31 32 33 32 33 33
24 24 26 27 27 24 21 18 19 23 24 22 22 23 24 24 25 29 29 29 29 31 31 31 32 32 32
23 24 23 22 25 25 22 12 14 15 23 19 20 25 19 23 23 24 25 28 28 28 30 30 30 29 29
21 20 22 24 25 25 24 14 14 24 25 27 22 25 25 24 24 23 23 24 23 25 28 29 30 30 30
20 21 22 22 26 27 28 29 29 27 28 28 25 25 23 22 21 22 22 25 24 23 22 27 30 30 31
21 20 26 23 23 26 28 29 29 29 30 29 28 27 26 24 23 23 24 21 24 24 22 23 24 25 25
19 20 21 24 25 27 25 26 26 26 26 22 28 27 25 26 26 25 26 25 26 26 26 26 27 27 27
21 23 22 23 24 25 25 24 23 23 23 21 28 29 29 27 25 26 26 26 26 26 27 27 27 28 28
24 23 23 23 23 24 25 23 22 22 22 23 25 26 25 25 29 26 26 25 26 26 26 26 26 27 27
24 24 24 23 23 22 23 23 22 22 23 24 22 24 22 19 22 27 24 24 25 26 27 26 26 26 27

GFSFLT2_sfc_dewp_072.txt.gz
Dewpoint
36 35 36 37 39 38 39 39 39 40 41 41 40 37 35 35 36 36 36 37 38 38 38 38 38 38 39
34 33 34 36 37 37 36 35 34 35 37 35 34 34 34 34 33 35 35 36 35 36 36 36 37 38 38
33 33 33 34 34 33 32 32 29 31 33 33 31 30 31 32 34 35 34 34 34 35 35 36 36 37 37
32 31 30 31 30 28 27 27 26 24 25 28 30 30 31 32 33 32 31 32 33 33 34 34 35 35 36
30 30 29 27 26 27 25 24 24 24 25 25 25 25 26 30 30 31 31 33 33 34 34 35 35 35 35
29 26 24 23 24 24 22 21 19 24 24 24 25 25 26 26 30 32 32 32 33 34 34 34 34 34 34
26 24 22 24 21 21 22 19 20 24 25 23 24 24 25 25 30 31 32 33 33 32 33 33 33 34 34
25 24 24 24 24 22 22 23 24 25 25 18 23 23 24 25 29 29 29 30 31 31 32 32 32 32 33
27 25 27 27 27 25 22 17 18 23 24 22 22 23 24 24 25 28 28 29 29 30 30 31 31 31 31
23 22 22 23 26 26 22 10 13 15 23 18 20 23 17 23 23 24 24 28 29 29 30 30 30 28 29
20 20 22 24 25 25 23 14 11 22 25 27 24 26 25 23 22 23 23 24 24 25 29 29 30 30 29
21 21 22 22 25 26 27 29 29 28 28 28 25 25 24 22 21 21 21 23 23 22 20 26 29 30 31
20 19 19 18 20 25 28 28 28 29 29 29 28 27 26 23 22 23 24 21 24 23 21 21 23 24 24
18 19 21 25 24 27 25 25 24 25 28 28 21 22 25 24 24 24 25 24 21 25 26 25 26 27 26
24 24 24 24 24 25 25 24 22 22 23 24 24 23 26 26 24 25 25 25 26 26 25 26 27 27 27
25 24 23 23 23 24 24 23 21 19 20 21 24 18 20 23 28 25 26 26 26 26 26 25 25 26 27
24 23 23 23 23 22 22 19 20 18 19 20 14 15 18 17 21 25 22 19 22 24 25 25 26 26 27

GFSFLT2_sfc_dewp_075.txt.gz
Dewpoint
36 36 37 38 39 39 41 40 40 42 42 43 44 43 42 40 38 37 38 38 38 38 39 39 39 39 39
34 34 34 36 37 38 38 38 38 37 40 41 42 40 38 36 35 34 35 36 36 36 36 38 38 38 38
33 34 33 34 34 35 35 35 36 36 35 36 35 34 32 32 33 34 35 35 35 35 36 36 37 37 38
32 32 32 33 31 30 31 29 27 24 26 28 30 30 31 32 33 34 33 33 33 34 34 35 35 36 36
30 30 29 27 26 27 25 24 23 24 24 24 24 25 26 29 30 31 31 32 34 34 35 35 35 34 35
24 24 23 23 23 24 21 19 18 24 24 24 25 25 25 26 29 31 32 33 33 34 34 33 34 34 34
24 23 22 23 19 19 22 18 19 23 25 23 24 23 24 24 29 31 31 32 33 33 32 33 34 34 34
24 24 23 24 23 21 21 23 24 24 24 17 23 23 24 24 29 30 30 30 30 31 31 32 32 32 32
28 27 27 29 28 24 24 17 18 22 24 22 21 22 23 23 24 28 28 29 29 30 31 31 31 31 30
22 21 23 25 27 26 22 10 12 14 22 18 19 21 16 22 23 23 23 27 28 29 30 30 31 28 27
20 21 23 24 25 25 22 13 10 19 24 27 20 25 23 21 22 23 22 23 24 25 28 30 30 30 28
21 21 21 21 25 26 26 28 29 27 28 28 25 25 23 23 20 20 19 23 22 22 20 26 30 30 31
19 18 18 17 18 25 27 28 28 28 29 29 28 27 26 24 22 22 23 20 24 21 19 20 22 22 24
18 19 20 25 24 26 25 25 24 24 26 28 28 26 22 22 23 22 23 24 20 23 23 25 26 26 26
24 23 24 25 24 25 25 24 22 17 14 19 26 25 23 23 22 23 23 24 26 26 25 25 25 26 26
24 24 24 23 23 23 24 23 21 15 13 12 14 22 16 20 26 22 24 24 24 25 25 25 24 25 26
23 23 23 23 23 21 20 15 17 14 14 13 8 12 16 15 20 24 23 22 18 22 24 24 24 25 26

GFSFLT2_sfc_dewp_078.txt.gz
Dewpoint
36 36 37 38 39 40 40 40 40 43 43 43 43 44 44 42 41 41 41 41 41 40 39 40 40 40 39
34 34 34 36 38 38 38 38 38 38 40 40 41 41 40 40 38 37 37 36 36 37 37 37 38 38 38
33 34 34 35 35 36 36 36 37 36 37 37 37 36 36 34 33 33 34 35 35 35 36 37 37 37 37
33 32 32 33 31 31 31 30 28 24 27 29 30 31 32 32 32 33 34 34 34 34 34 35 35 35 36
26 26 27 26 25 26 25 24 23 24 24 24 24 24 25 29 30 31 31 32 32 34 35 35 34 35 34
19 23 22 22 23 23 20 19 18 23 24 23 25 24 25 25 29 31 32 33 34 34 34 35 33 34 35
23 22 22 23 18 18 21 18 19 23 24 22 24 23 24 24 29 31 32 32 33 33 33 32 33 34 34
24 24 23 24 23 21 21 22 24 24 24 16 23 23 24 24 28 32 31 31 30 30 31 32 32 33 32
28 28 28 28 28 25 22 18 18 21 24 21 21 22 23 23 24 29 28 29 28 29 30 31 32 32 31
21 21 25 26 29 25 21 10 11 15 21 21 20 20 15 21 23 23 23 26 28 28 29 30 31 29 28
20 22 23 24 25 24 21 13 18 21 24 27 24 25 22 19 22 22 22 23 23 24 28 29 30 30 27
21 20 20 20 21 24 26 27 28 26 28 28 24 24 23 22 21 20 19 22 20 19 19 26 29 30 31
18 17 18 16 17 23 28 28 27 28 28 28 27 26 25 23 23 23 23 22 24 22 19 19 21 23 24
17 19 20 25 25 26 24 25 24 23 21 24 25 27 25 24 22 20 23 22 18 24 26 27 25 26 26
19 21 24 25 25 25 24 24 22 15 13 18 21 23 22 21 20 20 21 22 24 25 23 24 25 26 26
20 24 23 23 23 23 24 23 21 18 14 12 10 13 15 21 25 21 20 20 24 25 24 24 23 24 25
19 23 23 23 23 22 19 19 18 16 17 13 4 11 10 14 20 24 21 18 18 21 22 22 22 23 24

GFSFLT2_sfc_dewp_081.txt.gz
Dewpoint
37 38 38 39 39 40 40 40 41 44 44 44 43 44 45 44 43 42 42 42 43 43 43 41 40 40 40
36 36 36 37 38 38 38 38 38 40 41 42 42 40 40 40 39 39 39 38 38 37 37 37 38 37 39
35 36 36 36 36 36 35 36 34 35 35 36 35 35 36 38 34 33 34 35 35 35 35 36 37 36 37
34 33 32 31 32 31 29 28 27 24 28 30 30 31 31 32 33 33 34 35 34 35 35 34 35 35 35
30 30 28 26 26 27 25 24 24 25 24 23 24 25 25 27 29 31 32 32 33 33 34 35 35 34 34
28 25 23 24 25 24 25 24 23 25 24 22 25 23 25 26 28 30 31 32 33 34 34 34 35 33 34
23 24 23 24 26 27 25 25 22 24 25 22 23 23 25 24 29 31 32 33 33 34 34 34 32 32 33
24 24 25 26 25 27 26 26 26 25 25 25 24 23 24 24 28 31 32 31 30 30 31 32 32 33 33
28 28 28 28 28 27 26 27 23 21 25 25 25 24 24 24 25 30 29 29 28 29 30 30 32 32 32
21 22 26 28 29 25 27 27 25 24 25 26 24 24 25 24 26 25 24 25 28 28 29 30 31 30 31
21 23 24 25 25 25 24 27 26 25 26 28 28 25 24 24 25 26 25 24 25 27 28 29 29 30 31
21 22 24 25 26 26 27 28 27 28 28 30 27 26 25 23 22 25 26 27 29 29 30 29 29 30 31
22 24 26 26 26 26 28 29 30 30 30 29 28 27 27 25 24 24 25 26 28 28 29 29 29 29 28
23 24 24 25 25 26 25 25 25 25 28 27 27 28 25 25 25 24 24 24 27 28 27 27 28 27 27
23 23 23 24 24 26 26 25 24 24 24 25 25 25 25 25 23 23 23 24 26 27 26 25 28 27 26
24 24 24 24 24 24 25 25 23 23 23 23 22 22 22 23 26 24 24 25 26 26 26 24 25 26 25
24 24 24 24 23 23 23 23 22 22 22 22 21 20 19 18 21 25 26 25 25 24 25 25 26 26 24

GFSFLT2_sfc_dewp_084.txt.gz
Dewpoint
41 40 40 41 40 41 40 40 41 44 44 44 44 44 44 44 43 43 42 42 42 42 42 43 44 43 43
39 39 38 38 39 39 39 38 39 39 41 40 40 40 40 40 40 39 39 38 38 38 38 38 39 39 39
38 38 37 37 37 36 35 35 31 30 32 35 36 37 37 38 36 34 34 34 35 35 36 36 37 37 38
37 35 34 34 33 32 31 29 28 25 27 28 29 29 30 32 34 34 35 35 35 34 35 35 35 36 36
34 34 31 28 27 27 26 25 26 26 24 23 23 24 24 25 26 29 31 31 32 33 34 34 35 35 34
30 24 24 24 25 25 26 25 24 26 23 21 24 23 25 26 29 30 30 31 31 32 34 34 34 34 35
22 22 22 24 29 29 26 26 23 24 24 21 23 22 25 23 27 30 31 32 33 34 34 34 34 34 33
24 24 26 27 27 29 27 25 26 24 25 26 24 23 24 25 25 30 34 32 31 31 32 33 33 33 33
29 29 28 28 27 27 28 28 24 22 25 25 26 25 26 25 25 32 30 30 30 30 31 31 31 32 32
22 23 25 29 29 25 27 30 28 28 26 27 27 26 28 26 28 28 27 27 28 29 30 31 31 30 30
21 22 23 25 25 25 26 30 28 28 27 27 27 26 26 26 27 28 27 27 26 28 29 30 30 30 31
21 23 24 26 28 28 27 28 27 29 28 31 28 27 25 24 24 27 28 29 32 32 31 30 31 31 32
23 26 28 29 29 29 29 31 32 31 32 32 28 28 27 25 25 24 26 28 31 31 30 29 30 30 30
24 25 27 28 26 27 27 26 26 25 33 32 30 28 26 26 26 25 26 26 29 30 29 29 28 27 28
25 25 25 26 25 26 26 25 24 24 24 27 28 27 27 27 25 25 25 27 30 28 27 26 28 28 27
25 26 26 26 25 25 25 25 24 23 24 25 25 24 25 27 28 26 26 26 29 28 26 26 26 27 26
26 26 26 26 25 24 23 23 23 23 24 24 24 22 21 21 24 28 27 27 27 26 26 27 27 28 26

GFSFLT2_sfc_dewp_087.txt.gz
Dewpoint
42 40 40 40 40 41 41 40 41 44 44 45 44 44 44 44 44 44 44 43 43 43 44 44 45 44 44
40 40 38 38 39 39 38 37 39 37 40 41 40 40 40 41 40 40 40 39 38 38 38 39 39 39 39
39 39 38 38 38 37 35 36 28 30 32 35 37 38 38 38 37 36 35 35 35 36 37 37 37 37 37
38 37 36 35 34 32 33 31 30 25 28 28 28 28 29 31 33 35 35 35 35 34 34 35 35 35 36
36 36 33 30 29 28 27 27 28 27 27 25 26 26 26 24 26 28 29 30 31 32 33 34 34 34 34
34 27 25 25 26 27 28 28 28 28 26 24 25 24 26 27 31 31 31 31 31 31 32 34 32 33 33
24 24 23 27 30 30 27 27 25 26 25 24 24 24 26 24 28 29 31 32 32 33 33 34 33 32 33
27 26 28 27 27 29 27 26 27 25 26 27 26 25 27 27 27 28 33 33 32 31 31 32 32 33 33
30 29 28 29 29 28 30 29 27 23 26 26 28 27 27 26 27 32 31 30 31 31 31 31 31 32 32
25 25 26 30 29 26 29 27 28 28 27 26 27 27 25 27 28 28 28 28 27 29 30 31 32 30 30
22 23 24 26 26 26 27 28 27 27 28 27 27 26 26 26 27 29 28 28 28 29 30 31 32 31 28
23 24 26 28 29 29 28 30 29 27 30 30 25 27 26 23 24 27 28 29 28 29 30 29 31 32 32
26 28 29 30 28 27 30 30 28 29 30 25 25 28 27 25 25 25 26 29 29 28 28 29 30 30 27
27 28 29 29 28 29 28 28 27 27 30 30 24 22 25 26 25 24 25 25 26 26 28 28 27 28 28
27 27 27 27 27 27 26 26 25 24 25 29 29 29 27 26 24 24 24 25 27 28 27 26 27 27 27
27 27 26 26 26 27 27 26 24 24 25 27 27 26 25 25 27 24 24 25 25 27 27 26 25 26 27
27 26 26 26 25 24 23 24 23 22 25 26 26 24 20 19 23 30 24 22 27 26 26 26 25 26 26

GFSFLT2_sfc_dewp_090.txt.gz
Dewpoint
41 40 39 39 40 41 41 41 41 44 44 44 44 44 45 45 45 45 45 45 44 44 44 44 45 45 45
40 39 38 38 38 37 38 37 34 38 41 41 41 41 41 41 41 41 41 40 39 39 39 39 39 41 40
38 39 37 36 35 35 34 33 28 33 34 35 37 38 39 39 38 38 37 36 36 38 39 38 38 38 38
38 35 35 34 33 29 30 29 27 26 28 29 29 29 30 31 35 34 35 35 36 34 34 34 35 35 35
35 31 30 28 26 26 25 25 26 26 25 24 24 25 26 29 30 30 30 30 30 31 32 33 33 34 34
27 27 23 24 25 25 24 22 22 26 23 22 23 23 25 30 30 31 31 31 30 31 31 33 32 32 32
22 22 23 26 25 24 24 23 22 24 24 23 23 23 25 26 29 28 30 32 32 33 33 33 32 32 32
25 27 26 26 27 27 25 24 25 24 25 21 25 24 26 26 28 30 32 33 33 32 31 31 31 31 32
31 29 30 30 30 27 24 23 22 23 26 24 25 24 26 26 27 31 31 31 30 30 31 31 31 32 32
24 24 28 29 29 25 25 17 19 20 25 20 22 22 18 25 26 27 27 29 28 28 29 31 31 30 29
21 22 24 24 25 25 27 20 17 16 27 20 18 24 23 23 23 25 26 27 26 27 30 30 31 31 27
22 23 23 24 24 26 27 25 25 22 24 29 20 20 25 23 20 23 22 24 22 22 28 29 30 31 32
23 22 23 22 22 23 25 28 28 27 28 26 18 16 25 24 22 24 24 23 26 26 28 28 28 28 28
22 23 24 20 21 23 22 27 26 26 29 30 28 18 13 19 25 24 24 24 20 26 28 28 28 27 27
22 23 25 25 25 22 25 26 25 24 25 28 30 28 27 26 24 24 23 22 22 24 28 27 27 27 26
24 24 25 25 24 21 20 21 20 20 24 26 27 26 26 25 27 23 22 21 20 26 27 26 26 25 26
24 24 25 25 26 22 19 19 19 19 19 25 25 24 19 17 21 24 24 17 19 21 23 23 24 25 26

GFSFLT2_sfc_dewp_093.txt.gz
Dewpoint
41 40 39 40 40 40 41 40 42 44 44 44 44 45 45 45 46 46 47 47 46 46 45 44 45 45 45
39 39 38 38 38 37 38 37 34 40 41 42 42 42 42 42 42 42 42 41 41 41 41 40 41 42 42
38 39 37 35 35 35 35 30 28 33 33 35 36 40 40 39 40 39 39 38 39 40 40 40 39 39 40
38 36 34 34 32 32 29 28 26 25 28 29 30 30 31 34 35 34 35 36 36 35 35 35 35 35 36
36 30 30 27 28 26 25 26 25 25 24 24 23 24 27 31 31 30 29 29 30 31 32 33 33 33 34
27 29 24 24 25 25 24 22 22 25 22 21 23 23 26 28 29 30 31 32 30 30 31 31 34 32 32
24 24 23 26 26 25 24 22 22 23 23 22 24 24 26 26 29 28 29 31 32 33 33 34 32 32 32
26 26 25 26 26 26 25 24 25 25 25 21 25 25 26 26 30 31 33 33 33 33 32 31 32 32 32
32 32 32 32 29 27 24 23 22 23 25 24 24 24 26 26 27 31 31 31 31 31 31 31 31 31 32
23 28 29 30 29 26 25 16 18 19 24 20 21 21 17 24 25 27 27 30 31 28 30 29 31 30 30
22 23 25 24 25 26 26 19 13 14 27 20 11 17 17 19 23 24 25 26 26 26 30 29 29 30 31
22 23 24 24 24 25 26 25 23 20 24 23 13 12 12 20 18 22 21 23 21 20 28 28 29 30 31
23 23 23 23 21 21 23 23 20 25 27 24 23 10 12 19 18 21 23 22 24 22 29 28 29 28 27
22 23 22 20 19 18 15 18 20 23 27 29 27 26 23 15 17 20 22 21 18 19 22 24 28 26 26
23 23 25 24 22 18 18 19 20 18 19 23 29 27 25 24 23 24 24 23 18 19 24 24 25 26 26
22 23 24 23 22 21 20 21 21 20 17 17 19 21 24 26 28 24 23 23 20 20 25 26 23 24 26
22 21 22 23 27 24 23 22 20 19 18 16 16 17 16 17 21 23 22 24 23 24 23 22 22 24 25

GFSFLT2_sfc_dewp_096.txt.gz
Dewpoint
41 40 40 40 41 40 40 39 42 45 45 44 44 45 45 45 46 47 47 48 48 48 47 46 45 46 46
39 39 39 39 39 38 38 32 36 41 42 42 42 43 43 43 43 42 42 42 43 43 43 43 44 43 43
38 39 38 35 34 34 32 29 27 32 32 33 38 40 40 41 41 40 39 41 41 41 42 41 41 41 41
38 37 35 34 33 32 29 27 26 24 29 32 32 32 32 36 34 35 36 37 37 37 36 36 36 36 36
36 33 30 30 28 27 26 26 25 24 23 24 23 25 29 32 31 30 29 29 31 31 32 33 33 33 33
26 30 27 25 25 25 25 23 24 25 21 21 23 24 25 27 29 30 31 32 30 30 30 31 33 33 32
30 28 24 26 27 25 24 23 23 24 23 22 25 24 26 26 29 29 29 31 32 33 34 35 33 32 31
26 24 26 27 27 27 25 24 24 25 24 21 25 24 26 26 32 32 33 31 33 33 33 32 32 32 32
31 31 31 31 29 27 26 24 22 23 25 24 23 23 25 26 26 32 32 31 31 31 31 31 31 31 31
27 30 31 31 31 27 26 18 20 20 24 20 21 21 17 24 25 26 26 31 31 30 31 29 30 29 29
23 25 25 26 26 27 26 20 16 14 26 19 9 17 15 18 22 24 25 24 25 25 29 29 29 30 31
23 24 25 25 26 26 26 24 23 20 24 17 10 12 8 14 19 23 21 21 20 21 22 27 28 29 30
24 25 25 26 24 23 23 22 17 22 25 17 17 11 16 15 15 18 20 21 21 19 27 24 28 28 27
24 24 24 23 23 20 16 14 14 17 24 23 21 21 21 23 19 16 17 15 17 18 21 21 24 27 27
23 24 25 25 24 19 15 13 13 13 16 20 27 26 25 21 19 20 20 24 25 18 20 20 22 26 26
23 24 24 24 22 18 16 17 19 15 15 15 16 20 23 25 27 22 22 23 24 19 21 21 18 24 26
25 22 23 23 26 22 22 23 22 19 19 14 13 14 17 16 20 25 20 18 19 20 22 22 22 23 24

GFSFLT2_sfc_dewp_099.txt.gz
Dewpoint
41 41 41 41 41 40 40 40 43 45 45 44 45 45 45 46 47 48 49 49 50 50 49 48 48 48 47
39 39 39 40 40 39 36 34 37 41 41 43 43 43 43 43 43 43 43 44 45 45 45 46 45 45 46
38 39 38 37 36 35 30 28 26 32 34 36 41 41 42 42 41 41 42 43 43 43 43 43 43 43 42
38 37 36 36 34 32 28 27 25 24 30 33 35 35 37 36 36 36 37 39 39 38 37 37 37 37 38
37 35 33 32 30 30 27 26 25 24 23 24 23 26 30 31 32 32 31 31 33 33 33 34 34 33 34
34 34 31 29 26 27 26 24 24 25 21 22 23 24 25 26 30 30 31 32 30 30 30 31 33 33 33
32 30 27 26 27 25 25 24 23 24 23 21 25 24 26 26 31 31 29 32 32 33 35 35 33 32 32
32 29 26 27 27 27 26 24 25 25 24 22 25 24 26 26 32 33 33 31 33 33 34 33 33 33 33
30 31 31 31 29 26 26 25 24 23 25 25 24 24 24 26 26 32 32 32 32 31 31 32 31 32 31
30 31 31 31 30 26 27 22 23 22 25 23 22 21 18 24 25 26 26 32 32 30 31 30 30 29 28
26 27 26 27 27 27 26 24 19 20 26 20 10 17 14 18 22 23 24 24 24 25 29 29 29 29 26
24 25 25 26 27 27 26 26 25 24 27 18 12 13 6 11 17 22 21 21 21 21 21 27 28 29 29
24 25 26 27 26 26 26 25 24 26 26 17 15 7 11 9 13 18 19 21 22 19 20 21 21 25 23
25 25 25 24 24 23 20 22 20 20 24 20 16 16 13 15 16 15 18 15 17 19 21 21 23 25 26
24 24 25 25 24 20 18 15 16 15 17 21 27 24 21 18 17 20 20 16 19 20 20 16 21 23 25
25 24 23 24 23 18 15 16 17 16 15 17 17 20 22 24 27 22 19 21 24 24 22 21 23 23 25
27 24 23 23 25 22 20 19 20 19 20 19 17 17 18 17 21 28 23 18 20 22 22 21 19 22 24

GFSFLT2_sfc_dewp_102.txt.gz
Dewpoint
41 42 42 42 41 40 39 41 44 46 45 45 45 45 46 46 47 49 50 52 53 53 53 52 52 50 49
39 40 40 40 40 39 33 34 37 41 43 44 44 44 44 44 44 45 46 47 48 49 49 49 49 48 48
39 39 38 38 37 35 30 28 26 34 36 40 41 43 42 42 42 42 43 44 45 45 45 45 45 45 45
39 38 37 36 36 33 29 27 25 25 30 34 36 38 37 36 36 37 39 40 40 40 40 39 40 40 40
38 36 34 33 34 32 28 25 24 24 24 24 24 26 29 32 32 32 33 35 36 36 36 35 35 35 37
36 35 33 33 30 29 27 25 25 25 22 23 24 24 25 27 30 31 32 32 31 31 32 33 35 35 36
35 35 33 31 28 27 26 25 24 24 22 21 25 24 26 26 32 31 30 32 33 33 35 34 34 34 34
34 33 30 29 29 28 27 24 25 25 24 23 25 24 26 26 33 33 31 33 33 35 35 35 35 35 34
30 31 31 32 29 27 26 26 24 24 25 25 25 25 25 26 27 32 32 32 33 33 33 33 33 33 32
29 31 32 32 31 26 28 25 25 24 26 25 24 24 22 25 25 26 26 33 32 31 32 31 32 29 28
27 28 27 27 27 27 27 26 24 24 27 23 20 22 19 22 23 24 25 24 24 25 28 30 30 30 27
25 26 26 26 27 27 27 26 27 26 29 24 20 19 15 17 20 23 21 21 21 21 22 27 29 29 30
24 25 26 27 26 25 26 26 25 28 26 23 22 15 15 15 18 20 19 21 22 20 21 23 23 25 23
24 25 25 23 23 24 23 22 20 21 25 20 21 20 14 16 17 15 19 16 18 20 23 23 24 25 24
24 24 25 25 25 23 22 18 16 17 17 22 25 22 21 18 15 19 20 18 20 20 22 18 22 23 23
24 25 25 24 23 20 18 18 18 16 15 17 17 20 22 25 26 22 19 18 20 24 24 22 22 23 24
27 24 22 21 25 22 20 20 19 19 19 20 17 16 14 17 22 28 23 18 21 23 23 22 22 21 24

GFSFLT2_sfc_dewp_105.txt.gz
Dewpoint
43 43 43 43 42 41 42 44 46 46 46 45 45 45 46 47 48 50 52 54 57 57 56 55 54 52 50
41 41 41 42 41 38 36 34 39 43 45 45 45 45 44 45 46 48 49 51 52 53 53 53 52 51 49
41 40 40 39 38 34 31 29 30 37 40 42 43 43 42 42 43 44 45 46 47 47 49 49 49 49 48
40 39 38 37 37 34 30 29 28 28 32 36 39 39 37 36 37 40 41 42 43 43 43 43 44 45 45
39 37 36 35 36 34 31 28 26 26 26 25 28 28 30 32 33 34 36 38 38 39 38 38 38 39 40
38 37 36 36 34 32 29 28 28 27 25 24 25 25 27 31 31 32 32 32 34 34 34 35 35 38 40
37 37 35 34 33 31 29 29 28 25 23 24 24 24 27 29 33 31 31 33 32 33 34 35 35 36 35
35 36 35 35 35 34 32 28 26 25 24 26 25 24 26 28 34 33 31 33 35 36 36 36 35 35 34
31 32 32 34 32 30 29 29 26 24 25 26 26 26 26 27 30 32 34 35 35 35 34 34 34 35 34
31 32 33 33 31 28 30 32 29 26 27 29 26 27 27 27 29 29 31 32 32 32 32 33 35 32 32
29 29 29 28 28 28 28 33 31 30 27 29 28 26 27 27 27 27 28 29 29 29 31 31 33 32 32
26 28 28 28 29 29 28 29 29 32 31 30 28 28 27 25 25 26 27 27 29 30 31 28 31 32 32
24 27 29 30 29 29 29 29 31 31 29 28 28 25 27 27 25 24 26 28 28 29 28 29 30 29 29
25 26 28 28 28 28 28 27 28 27 28 27 27 27 26 25 25 24 25 26 26 27 27 27 26 26 26
26 26 26 27 27 27 27 27 27 26 26 27 27 26 27 26 25 24 24 25 26 27 25 26 27 26 25
27 27 27 27 27 27 27 27 27 26 25 26 27 26 26 26 28 26 25 25 26 26 26 25 24 25 23
30 28 28 27 28 26 26 26 25 26 26 26 25 25 22 20 23 28 26 26 25 25 25 25 24 26 24

GFSFLT2_sfc_dewp_108.txt.gz
Dewpoint
47 46 45 45 43 42 44 45 47 46 45 45 45 45 46 47 50 51 54 57 59 60 59 59 57 55 53
44 43 43 43 42 39 38 36 41 45 44 45 45 44 45 45 47 49 50 52 54 56 56 55 54 53 52
43 42 41 41 38 34 33 32 34 38 41 44 43 42 42 42 44 46 46 48 49 51 53 53 52 51 50
43 41 40 39 38 35 32 31 31 30 36 39 39 38 37 37 39 41 42 44 45 46 46 47 49 49 49
42 39 38 37 37 36 34 31 28 30 30 30 33 31 30 31 33 36 38 40 40 41 41 42 43 44 44
40 38 37 37 37 35 32 30 30 30 30 28 26 26 28 31 31 32 33 35 36 37 36 37 39 41 43
38 38 38 37 36 34 32 33 32 29 29 28 26 26 29 31 33 30 31 32 32 33 34 35 37 38 39
36 37 37 36 36 36 34 30 28 25 27 29 26 25 26 29 34 33 31 33 34 35 35 36 36 36 35
32 33 34 35 36 35 32 33 32 29 27 27 26 26 27 27 32 35 32 34 36 36 36 36 37 35 34
31 32 33 34 32 33 36 37 33 30 27 30 27 28 29 28 31 32 33 33 33 35 34 34 35 33 34
29 29 30 30 29 29 31 37 36 34 29 32 33 29 32 28 29 31 32 32 33 33 32 32 35 33 34
27 28 29 30 31 31 31 32 32 34 32 33 33 33 33 29 28 29 30 31 33 34 34 31 33 34 33
25 29 31 33 33 32 32 33 33 33 33 32 33 32 33 32 29 27 29 30 31 32 32 32 32 32 32
27 27 30 31 31 31 32 31 31 31 31 31 32 32 30 30 29 28 29 29 30 31 30 30 29 28 28
29 28 27 29 29 31 31 31 31 30 29 29 28 29 30 30 28 27 27 28 30 30 28 29 29 28 26
30 30 30 30 30 30 31 30 30 30 29 29 28 27 27 28 30 28 27 28 30 29 28 27 28 28 26
33 33 33 32 31 30 29 29 28 29 30 30 28 27 25 23 26 30 30 28 28 27 26 26 27 28 25

GFSFLT2_sfc_dewp_111.txt.gz
Dewpoint
49 47 47 46 44 43 44 45 47 47 46 45 45 45 45 46 48 50 52 55 59 59 59 60 61 60 58
47 45 44 44 43 40 37 36 43 46 45 45 44 44 44 44 46 48 50 52 55 58 59 59 58 56 55
45 43 42 42 38 36 34 34 35 38 41 44 43 41 41 42 43 45 47 49 51 52 54 55 55 54 53
42 42 41 40 39 36 33 33 33 31 37 40 39 37 37 38 39 41 43 46 48 49 50 51 52 53 53
41 40 39 37 37 37 35 32 31 31 31 32 36 33 31 31 34 37 39 41 42 44 46 46 47 48 48
41 39 38 38 37 35 33 31 32 31 30 31 28 29 29 32 32 33 35 37 38 39 39 42 43 45 45
39 38 38 38 37 35 33 33 33 30 30 32 27 27 29 32 36 32 32 33 35 36 36 39 42 43 42
34 37 37 36 37 36 34 31 28 26 28 32 28 26 28 31 34 33 32 33 34 35 35 37 39 37 38
34 34 36 37 37 34 32 32 31 29 28 29 27 27 27 28 33 34 33 34 36 36 36 36 36 36 35
32 33 35 35 35 35 36 35 35 31 29 30 28 28 26 29 32 33 34 36 35 36 36 36 36 35 35
29 30 31 31 30 30 32 35 33 32 30 32 29 28 30 27 30 32 33 33 33 34 33 35 36 34 34
28 29 30 31 31 32 31 32 32 33 31 32 31 29 29 27 27 30 31 33 33 33 33 33 34 35 33
29 30 31 32 31 30 30 31 31 31 31 27 31 28 30 29 29 28 28 30 31 31 31 31 31 32 30
29 30 31 30 29 30 29 30 30 29 30 28 29 28 26 28 29 28 28 27 30 30 30 30 30 30 31
30 30 29 30 29 29 29 29 28 29 28 29 29 29 29 27 25 28 28 27 28 28 29 28 29 29 28
30 30 29 28 28 28 28 29 28 29 28 28 27 26 26 28 29 27 28 28 29 29 28 26 27 30 28
31 30 29 29 29 28 28 28 28 28 29 30 28 26 22 22 28 30 27 28 28 28 27 27 26 28 28

GFSFLT2_sfc_dewp_114.txt.gz
Dewpoint
45 45 46 44 44 43 44 45 47 47 46 45 45 45 45 45 46 49 51 53 58 59 60 60 60 60 60
45 44 44 44 42 41 38 38 44 46 46 45 44 43 43 43 44 47 49 51 54 58 59 59 60 60 59
44 43 42 42 38 36 35 35 35 38 41 44 42 41 40 41 42 44 47 49 51 53 55 57 58 58 57
41 42 41 40 39 37 35 34 34 31 37 41 39 35 34 36 39 41 44 46 49 51 51 52 53 54 55
40 39 39 38 37 38 36 34 32 33 32 31 36 32 30 34 35 37 40 43 45 47 49 50 50 50 51
38 38 38 38 38 36 34 32 34 32 30 30 28 29 29 33 33 34 36 38 40 43 46 47 48 47 47
38 37 38 38 37 35 34 33 33 31 30 31 27 26 28 34 36 33 33 34 36 37 41 45 45 44 44
32 35 37 37 37 36 35 33 29 28 29 32 28 25 27 29 33 33 32 33 35 35 37 41 42 42 42
35 35 35 38 38 35 32 31 31 29 28 30 28 26 26 27 32 35 32 34 36 36 37 38 38 39 38
30 31 35 36 38 35 34 33 33 31 30 30 24 24 21 27 30 31 32 35 36 36 37 37 37 35 35
28 29 30 29 29 30 32 34 33 33 29 28 23 23 28 22 25 27 31 31 31 32 35 36 36 35 34
27 27 27 26 26 27 29 29 32 32 28 27 29 22 22 21 23 26 26 27 27 28 30 33 35 35 34
26 25 25 28 26 25 26 30 30 28 29 28 30 31 30 26 23 23 24 26 28 29 29 29 30 32 31
25 25 26 22 23 22 19 20 21 27 28 25 27 26 24 25 24 22 25 23 26 28 29 30 31 31 31
25 25 26 25 25 22 21 20 19 21 24 27 29 29 29 27 24 26 26 25 26 27 28 26 29 30 29
25 25 24 23 21 20 20 19 20 22 23 24 24 26 26 28 30 26 27 26 26 28 27 23 26 29 29
26 24 22 22 27 23 23 21 21 23 25 28 25 23 20 20 27 30 26 27 27 26 27 26 23 26 29

GFSFLT2_sfc_dewp_117.txt.gz
Dewpoint
44 43 43 43 43 42 43 44 47 48 47 46 45 44 44 44 45 46 49 52 53 57 59 60 59 59 60
43 43 44 44 43 41 38 38 43 45 47 46 44 43 42 42 43 45 47 49 52 55 58 59 60 59 59
42 42 42 42 39 37 36 36 35 39 41 44 42 40 39 39 41 42 45 47 50 52 55 57 58 58 59
40 42 42 40 37 38 37 35 36 33 36 40 41 35 35 37 37 39 42 44 48 51 52 52 55 56 57
39 40 39 37 36 37 37 35 34 35 34 33 34 33 33 34 34 36 39 43 45 49 51 51 51 53 56
38 38 37 38 37 37 35 33 35 33 31 31 29 29 30 32 37 35 36 38 41 45 48 48 49 50 52
36 37 36 38 37 35 34 34 34 32 31 31 28 27 28 32 34 36 34 36 37 40 46 46 47 47 50
33 35 37 38 37 37 36 34 30 29 30 31 28 26 27 28 34 34 33 34 36 36 41 43 44 46 47
35 35 35 36 38 36 33 32 31 31 28 30 29 27 26 27 30 36 32 34 35 34 39 39 42 41 43
29 30 34 35 39 36 34 33 33 32 30 28 27 24 20 26 28 30 31 35 36 36 37 37 38 35 34
28 29 30 29 29 31 33 34 33 33 30 25 20 22 22 24 27 28 29 30 31 31 36 37 36 35 34
27 27 27 26 26 26 29 28 32 33 32 23 21 18 18 21 24 27 26 25 26 27 27 34 35 35 36
26 25 26 27 25 25 28 29 29 29 30 30 28 30 23 21 25 27 26 27 27 25 27 27 28 30 29
25 25 29 28 22 20 16 27 21 25 26 27 29 23 21 24 26 26 27 25 27 28 30 29 31 31 31
25 26 26 25 24 19 17 17 16 21 24 25 28 28 27 25 26 27 27 27 26 28 29 29 30 31 30
25 25 23 22 20 20 17 17 16 20 20 22 23 23 26 28 30 26 26 26 26 29 29 26 26 28 30
24 22 20 19 25 19 18 18 20 24 24 24 21 16 17 22 26 30 25 25 26 26 26 27 25 26 28

GFSFLT2_sfc_dewp_120.txt.gz
Dewpoint
44 43 43 42 42 41 42 42 45 47 48 47 45 45 44 43 44 45 46 49 52 53 55 60 59 59 58
42 41 41 42 41 41 39 38 41 43 45 47 44 43 41 41 41 42 44 47 50 52 55 58 59 60 59
41 40 39 39 38 37 36 36 37 39 42 43 43 40 38 39 38 40 42 45 48 50 53 57 58 58 59
41 40 39 38 37 37 36 35 36 35 36 39 42 40 36 37 36 37 40 43 46 50 52 53 54 56 58
38 38 37 36 37 36 35 34 36 35 35 35 34 35 32 34 36 37 37 40 44 48 50 51 53 55 55
34 36 36 38 38 37 35 35 35 34 33 33 30 30 30 33 36 37 36 39 41 46 47 48 50 53 54
36 35 35 37 37 35 35 34 35 34 31 32 29 28 29 29 35 36 34 36 38 42 46 46 48 50 52
35 36 37 38 38 37 36 35 32 31 31 31 29 27 28 28 33 37 34 36 36 40 43 45 46 48 49
35 35 35 36 37 35 34 33 32 32 30 30 29 28 26 26 29 35 36 36 37 38 39 42 42 43 46
28 31 34 35 38 37 34 33 33 32 31 27 24 24 20 25 27 29 31 38 37 38 38 39 38 35 35
28 29 30 29 29 31 33 34 33 33 31 29 18 20 19 21 24 26 29 31 30 32 37 37 37 35 34
27 27 27 26 26 27 30 30 32 33 32 29 22 16 12 15 21 25 26 26 26 26 26 34 36 36 36
27 25 25 24 28 28 29 29 29 29 31 30 26 26 12 13 18 21 24 26 26 27 27 27 26 29 28
25 25 30 29 25 23 21 26 24 24 26 27 28 28 25 27 18 19 24 22 25 26 28 28 30 30 31
25 26 27 26 25 26 19 25 21 24 23 22 26 25 21 21 17 22 23 23 23 25 28 26 28 30 31
25 25 25 24 20 26 24 18 21 15 16 21 17 18 21 26 28 22 23 23 23 27 28 23 24 28 30
25 23 22 20 25 23 25 25 23 18 18 17 14 13 14 18 25 30 19 22 23 25 27 27 24 26 27